Tiempo cada hora Abancay

Hoy, 27 Octubre, Martes

Tiempo Temperatura Precipitaciones Viento Presión Humedad
00:00 +13°C° 0 mm 0 mps 544 mmHg 81%
01:00 +13°C° 0 mm 0 mps 543 mmHg 82%
02:00 +13°C° 0 mm 0 mps 543 mmHg 83%
03:00 +12°C° 0 mm 0 mps 542 mmHg 84%
04:00 +12°C° 0 mm 0 mps 542 mmHg 85%
05:00 +13°C° 0 mm 0 mps 543 mmHg 80%
06:00 +14°C° 0 mm 0 mps 544 mmHg 76%
07:00 +15°C° 0 mm 0 mps 544 mmHg 71%
08:00 +18°C° 0.2 mm 1 mps 545 mmHg 65%
09:00 +20°C° 0.2 mm 1 mps 546 mmHg 59%
10:00 +21°C° 0.2 mm 2 mps 546 mmHg 54%
11:00 +23°C° 0.6 mm 2 mps 546 mmHg 51%
12:00 +22°C° 0.6 mm 3 mps 545 mmHg 47%
13:00 +24°C° 0.6 mm 3 mps 545 mmHg 44%
14:00 +24°C° 0.6 mm 3 mps 544 mmHg 46%
15:00 +24°C° 0.6 mm 3 mps 544 mmHg 48%
16:00 +22°C° 0.6 mm 4 mps 544 mmHg 49%
17:00 +20°C° 0.7 mm 3 mps 543 mmHg 60%
18:00 +18°C° 0.7 mm 2 mps 543 mmHg 71%
19:00 +16°C° 0.7 mm 2 mps 543 mmHg 81%
20:00 +16°C° 0.3 mm 1 mps 543 mmHg 83%
21:00 +15°C° 0.3 mm 1 mps 543 mmHg 84%
22:00 +15°C° 0.3 mm 1 mps 543 mmHg 86%
23:00 +14°C° 0 mm 1 mps 543 mmHg 87%

Mañana, 28 Octubre, Miércoles

Tiempo Temperatura Precipitaciones Viento Presión Humedad
00:00 +14°C° 0 mm 1 mps 542 mmHg 88%
01:00 +14°C° 0 mm 1 mps 542 mmHg 88%
02:00 +13°C° 0 mm 1 mps 542 mmHg 86%
03:00 +13°C° 0 mm 1 mps 542 mmHg 83%
04:00 +12°C° 0 mm 0 mps 542 mmHg 80%
05:00 +13°C° 0 mm 0 mps 542 mmHg 74%
06:00 +14°C° 0 mm 0 mps 543 mmHg 68%
07:00 +15°C° 0 mm 0 mps 544 mmHg 61%
08:00 +19°C° 0 mm 1 mps 544 mmHg 53%
09:00 +21°C° 0 mm 1 mps 545 mmHg 44%
10:00 +22°C° 0 mm 1 mps 546 mmHg 36%
11:00 +24°C° 0 mm 2 mps 545 mmHg 32%
12:00 +25°C° 0 mm 2 mps 545 mmHg 29%
13:00 +26°C° 0 mm 3 mps 545 mmHg 25%
14:00 +26°C° 0 mm 3 mps 544 mmHg 26%
15:00 +25°C° 0 mm 3 mps 544 mmHg 27%
16:00 +25°C° 0 mm 3 mps 544 mmHg 28%
17:00 +22°C° 0 mm 3 mps 543 mmHg 40%
18:00 +19°C° 0 mm 2 mps 543 mmHg 53%
19:00 +17°C° 0 mm 2 mps 542 mmHg 65%
20:00 +16°C° 0.2 mm 1 mps 542 mmHg 71%
21:00 +16°C° 0.2 mm 1 mps 542 mmHg 77%
22:00 +15°C° 0.2 mm 1 mps 542 mmHg 83%
23:00 +14°C° 0 mm 1 mps 542 mmHg 85%

Pasado mañana, 29 Octubre, Jueves

Tiempo Temperatura Precipitaciones Viento Presión Humedad
00:00 +14°C° 0 mm 1 mps 542 mmHg 87%
01:00 +13°C° 0 mm 0 mps 541 mmHg 90%
02:00 +13°C° 0 mm 0 mps 541 mmHg 90%
03:00 +12°C° 0 mm 0 mps 541 mmHg 89%
04:00 +12°C° 0 mm 0 mps 541 mmHg 89%
05:00 +13°C° 0 mm 0 mps 542 mmHg 83%
06:00 +14°C° 0 mm 0 mps 543 mmHg 78%
07:00 +15°C° 0 mm 0 mps 544 mmHg 72%
08:00 +19°C° 0 mm 1 mps 544 mmHg 64%
09:00 +21°C° 0 mm 1 mps 545 mmHg 56%
10:00 +23°C° 0 mm 2 mps 546 mmHg 48%
11:00 +24°C° 0.1 mm 3 mps 546 mmHg 44%
12:00 +25°C° 0.1 mm 3 mps 545 mmHg 40%
13:00 +26°C° 0.1 mm 3 mps 545 mmHg 36%
14:00 +25°C° 0.2 mm 3 mps 545 mmHg 39%
15:00 +23°C° 0.2 mm 4 mps 544 mmHg 42%
16:00 +23°C° 0.2 mm 4 mps 544 mmHg 44%
17:00 +21°C° 0.2 mm 3 mps 543 mmHg 55%
18:00 +19°C° 0.2 mm 2 mps 543 mmHg 66%
19:00 +18°C° 0.2 mm 1 mps 542 mmHg 76%
20:00 +16°C° 0.1 mm 1 mps 543 mmHg 81%
21:00 +15°C° 0.1 mm 1 mps 543 mmHg 85%
22:00 +15°C° 0.1 mm 1 mps 543 mmHg 89%
23:00 +14°C° 0.1 mm 1 mps 543 mmHg 91%

30 Octubre, Viernes

Tiempo Temperatura Precipitaciones Viento Presión Humedad
00:00 +14°C° 0.1 mm 1 mps 542 mmHg 92%
01:00 +14°C° 0.1 mm 1 mps 542 mmHg 93%
02:00 +14°C° 0.1 mm 1 mps 542 mmHg 92%
03:00 +14°C° 0.1 mm 1 mps 542 mmHg 91%
04:00 +14°C° 0.1 mm 1 mps 542 mmHg 90%
05:00 +14°C° 0 mm 1 mps 543 mmHg 87%
06:00 +15°C° 0 mm 1 mps 543 mmHg 84%
07:00 +15°C° 0 mm 1 mps 544 mmHg 81%
08:00 +16°C° 0.3 mm 2 mps 545 mmHg 75%
09:00 +18°C° 0.3 mm 2 mps 545 mmHg 69%
10:00 +19°C° 0.3 mm 2 mps 546 mmHg 63%
11:00 +19°C° 0.9 mm 3 mps 545 mmHg 61%
12:00 +20°C° 0.9 mm 3 mps 545 mmHg 60%
13:00 +20°C° 0.9 mm 3 mps 544 mmHg 59%
14:00 +20°C° 0.5 mm 3 mps 544 mmHg 62%
15:00 +19°C° 0.5 mm 3 mps 543 mmHg 65%
16:00 +19°C° 0.5 mm 3 mps 543 mmHg 68%
17:00 +17°C° 0 mm 3 mps 543 mmHg 75%
18:00 +16°C° 0 mm 2 mps 543 mmHg 82%
19:00 +15°C° 0 mm 2 mps 543 mmHg 88%
20:00 +15°C° 0.1 mm 2 mps 543 mmHg 90%
21:00 +15°C° 0.1 mm 2 mps 544 mmHg 91%
22:00 +14°C° 0.1 mm 2 mps 544 mmHg 92%
23:00 +14°C° 0.1 mm 2 mps 544 mmHg 92%

31 Octubre, Sábado

Tiempo Temperatura Precipitaciones Viento Presión Humedad
00:00 +14°C° 0.1 mm 2 mps 543 mmHg 92%
01:00 +14°C° 0.1 mm 2 mps 543 mmHg 93%
02:00 +13°C° 0.4 mm 1 mps 543 mmHg 93%
03:00 +13°C° 0.4 mm 1 mps 543 mmHg 94%
04:00 +13°C° 0.4 mm 1 mps 543 mmHg 94%
05:00 +13°C° 0.2 mm 1 mps 543 mmHg 92%
06:00 +14°C° 0.2 mm 1 mps 544 mmHg 90%
07:00 +14°C° 0.2 mm 1 mps 544 mmHg 88%
08:00 +15°C° 0.2 mm 2 mps 545 mmHg 83%
09:00 +16°C° 0.2 mm 2 mps 545 mmHg 78%
10:00 +17°C° 0.2 mm 3 mps 545 mmHg 73%
11:00 +18°C° 0.3 mm 3 mps 545 mmHg 69%
12:00 +19°C° 0.3 mm 3 mps 545 mmHg 65%
13:00 +20°C° 0.3 mm 4 mps 545 mmHg 62%
14:00 +19°C° 0.2 mm 4 mps 545 mmHg 64%
15:00 +19°C° 0.2 mm 3 mps 544 mmHg 67%
16:00 +18°C° 0.2 mm 3 mps 543 mmHg 69%
17:00 +17°C° 0.1 mm 3 mps 543 mmHg 75%
18:00 +16°C° 0.1 mm 2 mps 543 mmHg 82%
19:00 +15°C° 0.1 mm 2 mps 543 mmHg 88%
20:00 +14°C° 0 mm 2 mps 544 mmHg 90%
21:00 +14°C° 0 mm 1 mps 544 mmHg 91%
22:00 +14°C° 0 mm 1 mps 544 mmHg 93%
23:00 +13°C° 0 mm 1 mps 544 mmHg 92%

1 Noviembre, Domingo

Tiempo Temperatura Precipitaciones Viento Presión Humedad
00:00 +13°C° 0 mm 1 mps 543 mmHg 92%
01:00 +13°C° 0 mm 1 mps 543 mmHg 92%
02:00 +13°C° 0 mm 1 mps 543 mmHg 92%
03:00 +13°C° 0 mm 1 mps 543 mmHg 92%
04:00 +13°C° 0 mm 1 mps 543 mmHg 91%
05:00 +13°C° 0 mm 1 mps 543 mmHg 90%
06:00 +13°C° 0 mm 1 mps 544 mmHg 88%
07:00 +13°C° 0 mm 1 mps 544 mmHg 86%
08:00 +15°C° 0.1 mm 2 mps 545 mmHg 81%
09:00 +16°C° 0.1 mm 2 mps 545 mmHg 75%
10:00 +17°C° 0.1 mm 2 mps 545 mmHg 70%
11:00 +18°C° 0.2 mm 3 mps 545 mmHg 65%
12:00 +19°C° 0.2 mm 3 mps 545 mmHg 60%
13:00 +21°C° 0.2 mm 3 mps 545 mmHg 55%
14:00 +21°C° 0.2 mm 3 mps 545 mmHg 55%
15:00 +21°C° 0.2 mm 3 mps 545 mmHg 56%
16:00 +20°C° 0.2 mm 3 mps 544 mmHg 56%
17:00 +19°C° 0.2 mm 3 mps 544 mmHg 66%
18:00 +17°C° 0.2 mm 2 mps 543 mmHg 76%
19:00 +15°C° 0.2 mm 2 mps 543 mmHg 86%
20:00 +15°C° 0.4 mm 2 mps 543 mmHg 88%
21:00 +14°C° 0.4 mm 1 mps 543 mmHg 91%
22:00 +14°C° 0.4 mm 1 mps 544 mmHg 93%
23:00 +14°C° 0 mm 1 mps 543 mmHg 92%
Mostrar más

Necesitamos Su Consentimiento

Meteoprog y nuestros Proveedores de Servicios pueden almacenar y acceder a sus datos personales como cookies, identificadores de dispositivo u otras tecnologías similares de su dispositivo y procesar dichos datos para personalizar contenido y anuncios, además de ofrecer funciones de redes sociales y analizar el tráfico.

  • Almacenar y/o acceder a información en su dispositivo

    Se puede almacenar o acceder a cookies, identificadores de dispositivo u otra información de su dispositivo para los fines anteriormente indicados.

  • Anuncios y contenido personalizados, medición de anuncios y contenido, percepciones del público, y desarrollo de productos

    Los anuncios y el contenido pueden personalizarse en base a su perfil. Se pueden añadir más datos para personalizar mejor los anuncios y contenidos. Se puede medir el rendimiento de los anuncios y contenidos. Se puede obtener la percepción sobre el público que ha visto los anuncios y contenidos. Dichos datos pueden usarse para desarrollar o mejorar la experiencia del usuario, sistemas y software.

Al hacer clic en ‘Estoy De Acuerdo’ usted permitirá el uso de las cookies, identificadores de dispositivo, balizas web u otras tecnologías similares indicadas. Su configuración puede cambiarse desde el navegador de su dispositivo.

Para ciertos fines, los intereses legítimos pueden ser considerados por encima del consentimiento. Puede leer más sobre ello en nuestra Política de Privacidad y Cookies.